Airports & Charts

SJU | TJSJ – Luis Munoz Marin International Airport

San Juan, Puerto RicoAirspace Class: Class C

TJSJ 221456Z 06012KT 10SM FEW021 FEW060 31/26 A3001 RMK AO2 SLP161 VCSH SE-SW T03110256 50003

 

Flight Planner at SkyVector.com

Click Chart to Enlarge (Opens in Same Window)

 

AIRAC Cycle: 1501

AD – Airport Diagram
AIRPORT DIAGRAM  
SIDs – Standard Instrument Departures
ACONY ONE (RNAV) RNAV Turbojet  
CRSTL ONE RNAV  
GANBO ONE (RNAV) RNAV Turbojet  
GLADA TWO (RNAV) RNAV Turbojet  
HAMAR ONE (RNAV) RNAV Prop/Turboprop  
JAAWS NINE   
JETSS ONE   
SNGRA ONE (RNAV) RNAV Prop/Turboprop  
VERMO FIVE   
NOTE: Special Take-Off Minimums/Departure Procedures apply   
STARs – Standard Terminal Arrivals
BEANO THREE (RNAV) RNAV Turbojet  
CHAKA FOUR (RNAV) RNAV Prop/Turboprop  
JOSHE THREE (RNAV) (Cont.) RNAV Turbojet  
SAALR TWO (RNAV) RNAV Turbojet  
TROCO THREE (RNAV) RNAV Turbojet  
IAPs – Instrument Approach Procedures
ILS OR LOC RWY 08   
ILS OR LOC RWY 10   
RNAV (GPS) RWY 08 RNAV  
RNAV (GPS) RWY 10 RNAV    
RNAV (GPS) RWY 26 RNAV    
VOR OR TACAN RWY 08   
VOR OR TACAN RWY 10   
VOR OR TACAN RWY 26   
NDB RWY 08   
BRIDGE VISUAL RWY 10   
LAGOON VISUAL RWY 08   
NOTE: Special Alternate Minimums apply   

 

 

 

SXM | TNCM – Princess Juliana International Airport

Philipsburg, St. MaartenAirspace Class: Class C

TNCM 221500Z 09007KT 060V130 9999 SCT020 31/25 Q1016 A3000 NOSIG

 

Flight Planner at SkyVector.com

Click Chart to Enlarge (Opens in Same Window)

 

Chart Packet
SXM Chart Packet  

 

 

STT | TIST – Cyril E King Airport

Charlotte Amalie West, St. Thomas, U.S.V.I.Airspace Class: Class C

TIST 221553Z 13010KT 10SM SCT027 BKN039 BKN046 30/25 A3000 RMK AO2 SLP158 T03000250

 

Flight Planner at SkyVector.com

 Click Chart to Enlarge (Opens in Same Window)

 

AIRAC Cycle: 1501

AD – Airport Diagram
AIRPORT DIAGRAM  
SIDs – Standard Instrument Departures
PALCO SIX   
NOTE: Special Take-Off Minimums/Departure Procedures apply   
IAPs – Instrument Approach Procedures
ILS RWY 10   
RNAV (GPS) RWY 10 RNAV  
VOR-A   
NOTE: Special Alternate Minimums apply   

 

 

STX | TISX – Henry E Rohlsen Airport

Christiansted, St. Croix, U.S.V.I.Airspace Class: Class D

TISX 221553Z 11011KT 10SM SCT024 SCT029 32/26 A3000 RMK AO2 SLP158 T03170256

 

Flight Planner at SkyVector.com

Click Chart to Enlarge (Opens in Same Window)

 

AIRAC Cycle: 1501

AD – Airport Diagram
AIRPORT DIAGRAM  
SIDs – Standard Instrument Departures
HAMILTON SEVEN Prop/Turboprop  
SNOOZ THREE Prop/Turboprop  
NOTE: Special Take-Off Minimums/Departure Procedures apply   
IAPs – Instrument Approach Procedures
ILS OR LOC RWY 10   
RNAV (GPS) RWY 10 RNAV   
RNAV (GPS) RWY 28 RNAV    
VOR RWY 28   
NOTE: Special Alternate Minimums apply   

 

 

BQN | TJBQ – Rafael Hernandez Airport

Aguadilla, Puerto RicoAirspace Class: Class D

TJBQ 221450Z 10012G17KT 10SM HZ SCT020 31/24 A3003 RMK LTG DSNT SW & W

 

Flight Planner at SkyVector.com

Click Chart to Enlarge (Opens in Same Window)

 

AIRAC Cycle: 1501

AD – Airport Diagram
AIRPORT DIAGRAM
IAPs – Instrument Approach Procedures
RNAV (GPS) RWY 08 RNAV     
RNAV (GPS) RWY 26 RNAV   
VOR/DME OR TACAN RWY 08   
VOR/DME OR TACAN RWY 26   
VOR RWY 08   
NOTE: Special Take-Off Minimums/Departure Procedures apply   

 

 

SIG | TJIG – Fernando Luis Ribas Dominicci Airport

San Juan, Puerto RicoAirspace Class: Class D

TJIG 221550Z 08006KT 10SM SCT0305 SCT080 30/25 A3003

 

Flight Planner at SkyVector.com

Click Chart to Enlarge (Opens in Same Window)

 

AIRAC Cycle: 1501

AD – Airport Diagram
AIRPORT DIAGRAM
IAPs – Instrument Approach Procedures
RNAV (GPS) RWY 09 RNAV     

 

 

AXA | TQPF – Clayton J Lloyd International Airport

The Valley, AnguillaAirspace Class: Class D

TQPF 221500Z 09011KT 9999 FEW018 31/24 Q1016

 

Flight Planner at SkyVector.com

Click Chart to Enlarge (Opens in Same Window)

 

Chart Packet
AXA Chart Packet  

 

 

SBH | TFFJ – St. Barthélemy Airport

St.Jean, St. BarthélemyAirspace Class: Class E

TNCM 221500Z 09007KT 060V130 9999 SCT020 31/25 Q1016 A3000 NOSIG

 

Flight Planner at SkyVector.com

Click Chart to Enlarge (Opens in Same Window)

 

Chart Packet
SBH Chart Packet  

 

 

SFG | TFFG – Grand Case Airport

Grand Case, St. MartinAirspace Class: Class E

TNCM 221500Z 09007KT 060V130 9999 SCT020 31/25 Q1016 A3000 NOSIG

 

Flight Planner at SkyVector.com

Click Chart to Enlarge (Opens in Same Window)

 

Chart Packet
SFG Chart Packet  

 

 

PSE | TJPS – Mercedita Airport

Ponce, Puerto RicoAirspace Class: Class E

TJPS 220750Z 04005KT 10SM SKC 24/23 A2999

 

Flight Planner at SkyVector.com

Click Chart to Enlarge (Opens in Same Window) 

 

AIRAC Cycle: 1501

IAPs – Instrument Approach Procedures
RNAV (GPS) RWY 12 RNAV  
RNAV (GPS) RWY 30 RNAV  
VOR-A   
NOTE: Special Take-Off Minimums/Departure Procedures apply   

 

 

MAZ | TJMZ – Eugenio Maria de Hostos Airport

Mayaguez, Puerto RicoAirspace Class: Class E

TJMZ 101550Z 11009KT 10SM SCT050 33/24

 

Flight Planner at SkyVector.com

Click Chart to Enlarge (Opens in Same Window) 

 

AIRAC Cycle: 1501

AD – Airport Diagram
AIRPORT DIAGRAM  
IAPs – Instrument Approach Procedures
RNAV (GPS) RWY 09 RNAV   
VOR RWY 09   
NOTE: Special Alternate Minimums apply   
NOTE: Special Take-Off Minimums/Departure Procedures apply   

 

VQS | TJVQ – Antonio Rivera Rodriguez Airport

Isla de Vieques, Puerto RicoAirspace Class: Class G

TJNR 221553Z AUTO 06008KT 10SM CLR 31/26 A3003 RMK AO2 SLP167 T03110256

 

Flight Planner at SkyVector.com

Click Chart to Enlarge (Opens in Same Window) 

 

AIRAC Cycle: 1501

SIDs – Standard Instrument Departures
VEDAS THREE (RNAV) RNAV     
NOTE: Special Take-Off Minimums/Departure Procedures apply   
IAPs – Instrument Approach Procedures
RNAV (GPS) RWY 09 RNAV